Regional Weather Roundup
Issued by NWS Charleston, SC

Current Version | Previous Version | Text Only | Print | Product List | Glossary Off
Versions: 1 2 3 4 5 6 7 8 9 10 11 12 13 14 15 16 17 18 19 20 21 22 23 24 25 26 27 28 29 30 31 32 33 34 35 36 37 38 39 40 41 42 43 44 45 46 47 48 49 50
000 ASUS42 KCHS 201010 RWRCHS REGIONAL WEATHER ROUNDUP NATIONAL WEATHER SERVICE CHARLESTON SC 500 AM EST SAT DEC 20 2014 NOTE: "FAIR" INDICATES FEW OR NO CLOUDS BELOW 12,000 FEET WITH NO SIGNIFICANT WEATHER AND/OR OBSTRUCTIONS TO VISIBILITY. NOT ALL STATIONS ARE QUALITY CONTROLLED BY THE NATIONAL WEATHER SERVICE. USE DATA WITH CAUTION...ESPECIALLY DEWPOINT OBSERVATIONS. SCZ027-030-031-034>040-042>050-201100- ...SOUTHEAST SOUTH CAROLINA... CITY SKY/WX TMP DP RH WIND PRES REMARKS N CHARLESTON LGT RAIN 50 45 83 NE9 30.14S WATERFRONT PRK N/A 54 N/A N/A N10 N/A MOUNT PLEASANT LGT RAIN 52 48 87 N5 30.15R PINOPOLIS N/A 52 46 82 E7 30.09S MONCKS CORNER LGT RAIN 50 46 87 E6 30.15S SUMMERVILLE NOT AVBL BEAUFORT MCAS CLOUDY 51 47 86 NW5 30.15R BEAUFORT ARPT CLOUDY 50 48 93 N6 30.14R HILTON HEAD IS NOT AVBL WALTERBORO DRIZZLE 50 N/A N/A E7 30.15F ALLENDALE PTSUNNY 48 46 93 CALM 30.13F ...SOUTHERN MIDLANDS AND PEE DEE... CITY SKY/WX TMP DP RH WIND PRES REMARKS GEORGETOWN NOT AVBL KINGSTREE NOT AVBL ORANGEBURG LGT RAIN 47 43 86 NE3 30.16R BARNWELL N/A 48 46 93 NE3 30.15F AIKEN LGT RAIN 45 45 100 CALM 30.18R MANNING NOT AVBL COLUMBIA LGT RAIN 47 42 83 CALM 30.16F SUMTER LGT RAIN 43 41 90 NE7 30.15F FLORENCE LGT RAIN 43 39 86 E5 30.19R MYRTLE BEACH CLOUDY 46 43 87 NE7 30.17F N MYRTLE BEACH LGT RAIN 46 42 86 NE6 30.18F $$ GAZ063-065-086>088-099>101-113>116-118-119-134>141-150-201100- ...SOUTHEAST GEORGIA... CITY SKY/WX TMP DP RH WIND PRES REMARKS SAVANNAH ARPT CLOUDY 51 49 92 CALM 30.14S FOG HUNTER AAF LGT RAIN 52 52 100 N2 30.12R FORT STEWART CLOUDY 50 48 93 NE3 30.10F STATESBORO CLOUDY 49 49 100 CALM 30.13S FOG SYLVANIA LGT RAIN 49 49 100 E3 30.14S CLAXTON CLOUDY 46 46 100 CALM 30.13F ...CSRA...CENTRAL AND FAR SOUTHEAST GEORGIA... CITY SKY/WX TMP DP RH WIND PRES REMARKS THOMSON CLOUDY 48 48 100 CALM 30.18S AUGUSTA-BUSH LGT RAIN 48 46 93 CALM 30.15F AUGUSTA-DANIEL LGT RAIN 50 47 89 E5 30.14F SWAINSBORO LGT RAIN 50 50 100 CALM 30.13S VIDALIA CLOUDY 50 48 93 NE5 30.11F EASTMAN CLOUDY 48 48 100 CALM 30.13F HAZLEHURST RAIN 51 51 100 CALM 30.10S ALMA CLOUDY 50 48 93 CALM 30.11F FOG WAYCROSS CLOUDY 54 52 95 CALM 30.11F JESUP CLOUDY 54 52 94 CALM 30.13S FOG BAXLEY CLOUDY 52 50 93 CALM 30.11S FOG BRUNSWICK CLOUDY 54 52 94 N5 30.12F SAINT SIMONS CLOUDY 53 51 93 N8 30.11R $$ SCZ027-028-034-036>038-045-046-048>050-GAZ119-141-201100- ...LAKE AND SUPPLEMENTAL COASTAL OBSERVATIONS... STATION/POSITION TIME TEMP WIND PRES WAVE SWELL AIR SEA DIR/SP/G HT/PER HT/PER/DIR (UTC) (F) (DEG/KT/KT) (MB) (FT/S) (FT/S/D) UPR LAKE MARION NOT AVBL WINYAH BAY 0900 53 50/ 5 1021.0S LAKE MURRAY 0900 48 90/ 5/ 7 1020.7F ACE BASIN NERRS 0900 48 20/ 2 1020.0S FORT PULASKI 1000 53 57 340/ 6/ 7 1020.7R SAPELO ISLAND 0900 53 20/ 4 1019.0F $$ ANZ835-935-AMZ111-154-330-350-352-354-370-450-454-472-201100- ...C-MAN AND BUOY OBSERVATIONS... STATION/POSITION TIME TEMP WIND PRES WAVE SWELL AIR SEA DIR/SP/G HT/PER HT/PER/DIR (UTC) (F) (DEG/KT/KT) (MB) (FT/S) (FT/S/D) BUOY 41004 1000 64 69 60/ 17/ 19 1018.5F 3/ 4 2/11 BUOY 41008 1000 58 57 20/ 10/ 12 1019.3F 1/11 2/ 90/11 FOLLY BEACH CMAN 0900 54 30/ 14/ 16 1020.5F CAPERS NEARSHORE 0900 55 60/ 16/ 17 N/A FRIPP NEARSHORE NOT AVBL STATION/POSITION TIME TEMP WIND PRES WAVE SWELL AIR SEA DIR/SP/G HT/PER HT/PER/DIR (UTC) (F) (DEG/KT/KT) (MB) (FT/S) (FT/S/D) 5E ST. MARYS GA 1000 60 N/A 2/11 FRYING PAN BUOY 1000 57 68 60/ 12/ 14 1022.4R 2/ 4 2/120/11 BUOY 41025 1000 46 1023.3F 3/ 7 CAPE LOOKOUT NC 0900 45 10/ 7/ 10 1023.4R BUOY 41002 0940 65 72 40/ 8/ 12 1020.7R 2/ 7 2/ 30/ 7 BUOY 41010 1000 71 76 180/ 6/ 8 1018.3F 2/10 2/110/10 ST AUGUSTINE FL 1000 62 10/ 13/ 13 1019.1R $$

USA.gov is the U.S. government's official web portal to all federal, state and local government web resources and services.